Wetterdaten: Dienstag, 01.10.2013
Datum Zeit Temp. A. Temp. A. min Temp. A. max Feuchte A. Luftdruck Regen Wind Richtung Richtung Sonnenschein ET Solar Taupunkt Windchill Windben Empfang
01.10.2013 00:00 7,1 C 0,0 C 0,0 C 83 % 1008,5 hPa 0,0 l/m 0,0 km/h (0 Bft) NO 55 0 min 0,000 mm 0 W/m 4,4 C 7,1 C 0,0 km/h (0 Bft) 0,00 %
01.10.2013 00:05 7,0 C 0,0 C 0,0 C 83 % 1008,5 hPa 0,0 l/m 3,3 km/h (1 Bft) NW 320 0 min 0,000 mm 0 W/m 4,3 C 7,0 C 3,3 km/h (1 Bft) 0,00 %
01.10.2013 00:10 6,9 C 0,0 C 0,0 C 84 % 1008,5 hPa 0,0 l/m 0,0 km/h (0 Bft) NW 315 0 min 0,000 mm 0 W/m 4,4 C 6,9 C 0,0 km/h (0 Bft) 0,00 %
01.10.2013 00:15 6,9 C 0,0 C 0,0 C 84 % 1008,5 hPa 0,0 l/m 0,0 km/h (0 Bft) NO 40 0 min 0,000 mm 0 W/m 4,4 C 6,9 C 0,0 km/h (0 Bft) 0,00 %
01.10.2013 00:20 6,8 C 0,0 C 0,0 C 84 % 1008,5 hPa 0,0 l/m 0,0 km/h (0 Bft) N-NW 335 0 min 0,000 mm 0 W/m 4,3 C 6,8 C 0,0 km/h (0 Bft) 0,00 %
01.10.2013 00:25 6,8 C 0,0 C 0,0 C 84 % 1008,5 hPa 0,0 l/m 0,0 km/h (0 Bft) SW 225 0 min 0,000 mm 0 W/m 4,3 C 6,8 C 0,0 km/h (0 Bft) 0,00 %
01.10.2013 00:30 6,8 C 0,0 C 0,0 C 84 % 1008,5 hPa 0,0 l/m 0,0 km/h (0 Bft) NO 40 0 min 0,000 mm 0 W/m 4,3 C 6,8 C 0,0 km/h (0 Bft) 0,00 %
01.10.2013 00:35 6,8 C 0,0 C 0,0 C 84 % 1008,5 hPa 0,0 l/m 1,5 km/h (1 Bft) N-NW 345 0 min 0,000 mm 0 W/m 4,3 C 6,8 C 1,5 km/h (1 Bft) 0,00 %
01.10.2013 00:40 6,8 C 0,0 C 0,0 C 84 % 1008,5 hPa 0,0 l/m 2,4 km/h (1 Bft) NW 315 0 min 0,000 mm 0 W/m 4,3 C 6,8 C 2,4 km/h (1 Bft) 0,00 %
01.10.2013 00:45 6,8 C 0,0 C 0,0 C 84 % 1008,5 hPa 0,0 l/m 0,0 km/h (0 Bft) NW 320 0 min 0,000 mm 0 W/m 4,3 C 6,8 C 0,0 km/h (0 Bft) 0,00 %
01.10.2013 00:50 6,7 C 0,0 C 0,0 C 84 % 1009,5 hPa 0,0 l/m 3,9 km/h (1 Bft) N-NO 15 0 min 0,000 mm 0 W/m 4,2 C 6,7 C 3,9 km/h (1 Bft) 0,00 %
01.10.2013 00:55 6,8 C 0,0 C 0,0 C 84 % 1009,5 hPa 0,0 l/m 2,7 km/h (1 Bft) N 10 0 min 0,000 mm 0 W/m 4,3 C 6,8 C 2,7 km/h (1 Bft) 0,00 %
01.10.2013 01:00 6,7 C 0,0 C 0,0 C 84 % 1009,5 hPa 0,0 l/m 0,3 km/h (0 Bft) W-NW 300 0 min 0,000 mm 0 W/m 4,2 C 6,7 C 0,3 km/h (0 Bft) 0,00 %
01.10.2013 01:05 6,7 C 0,0 C 0,0 C 85 % 1008,5 hPa 0,0 l/m 1,8 km/h (1 Bft) N 5 0 min 0,000 mm 0 W/m 4,4 C 6,7 C 1,8 km/h (1 Bft) 0,00 %
01.10.2013 01:10 6,7 C 0,0 C 0,0 C 85 % 1008,5 hPa 0,0 l/m 1,2 km/h (1 Bft) N-NO 20 0 min 0,000 mm 0 W/m 4,4 C 6,7 C 1,2 km/h (1 Bft) 0,00 %
01.10.2013 01:15 6,7 C 0,0 C 0,0 C 85 % 1008,5 hPa 0,0 l/m 1,2 km/h (1 Bft) N-NW 330 0 min 0,000 mm 0 W/m 4,4 C 6,7 C 1,2 km/h (1 Bft) 0,00 %
01.10.2013 01:20 6,7 C 0,0 C 0,0 C 85 % 1008,5 hPa 0,0 l/m 0,9 km/h (0 Bft) N 350 0 min 0,000 mm 0 W/m 4,4 C 6,7 C 0,9 km/h (0 Bft) 0,00 %
01.10.2013 01:25 6,6 C 0,0 C 0,0 C 85 % 1008,5 hPa 0,0 l/m 5,1 km/h (1 Bft) N-NO 20 0 min 0,000 mm 0 W/m 4,3 C 5,9 C 5,1 km/h (1 Bft) 0,00 %
01.10.2013 01:30 6,7 C 0,0 C 0,0 C 85 % 1008,5 hPa 0,0 l/m 1,5 km/h (1 Bft) N 350 0 min 0,000 mm 0 W/m 4,4 C 6,7 C 1,5 km/h (1 Bft) 0,00 %
01.10.2013 01:35 6,6 C 0,0 C 0,0 C 85 % 1008,5 hPa 0,0 l/m 0,9 km/h (0 Bft) W-SW 240 0 min 0,000 mm 0 W/m 4,3 C 6,6 C 0,9 km/h (0 Bft) 0,00 %
01.10.2013 01:40 6,6 C 0,0 C 0,0 C 85 % 1008,5 hPa 0,0 l/m 3,0 km/h (1 Bft) NW 325 0 min 0,000 mm 0 W/m 4,3 C 6,6 C 3,0 km/h (1 Bft) 0,00 %
01.10.2013 01:45 6,5 C 0,0 C 0,0 C 84 % 1008,5 hPa 0,0 l/m 2,7 km/h (1 Bft) N-NO 30 0 min 0,000 mm 0 W/m 4,0 C 6,5 C 2,7 km/h (1 Bft) 0,00 %
01.10.2013 01:50 6,5 C 0,0 C 0,0 C 84 % 1008,5 hPa 0,0 l/m 0,9 km/h (0 Bft) W-NW 295 0 min 0,000 mm 0 W/m 4,0 C 6,5 C 0,9 km/h (0 Bft) 0,00 %
01.10.2013 01:55 6,5 C 0,0 C 0,0 C 85 % 1008,5 hPa 0,0 l/m 1,5 km/h (1 Bft) N 350 0 min 0,000 mm 0 W/m 4,2 C 6,5 C 1,5 km/h (1 Bft) 0,00 %
01.10.2013 02:00 6,5 C 0,0 C 0,0 C 85 % 1008,5 hPa 0,0 l/m 3,6 km/h (1 Bft) N 350 0 min 0,000 mm 0 W/m 4,2 C 6,5 C 3,6 km/h (1 Bft) 0,00 %
01.10.2013 02:05 6,4 C 0,0 C 0,0 C 85 % 1008,5 hPa 0,0 l/m 1,8 km/h (1 Bft) N-NW 330 0 min 0,000 mm 0 W/m 4,1 C 6,4 C 1,8 km/h (1 Bft) 0,00 %
01.10.2013 02:10 6,4 C 0,0 C 0,0 C 85 % 1008,5 hPa 0,0 l/m 2,1 km/h (1 Bft) N-NW 335 0 min 0,000 mm 0 W/m 4,1 C 6,4 C 2,1 km/h (1 Bft) 0,00 %
01.10.2013 02:15 6,5 C 0,0 C 0,0 C 85 % 1008,5 hPa 0,0 l/m 0,3 km/h (0 Bft) N-NW 345 0 min 0,000 mm 0 W/m 4,2 C 6,5 C 0,3 km/h (0 Bft) 0,00 %
01.10.2013 02:20 6,4 C 0,0 C 0,0 C 85 % 1008,5 hPa 0,0 l/m 1,5 km/h (1 Bft) N-NO 15 0 min 0,000 mm 0 W/m 4,1 C 6,4 C 1,5 km/h (1 Bft) 0,00 %
01.10.2013 02:25 6,5 C 0,0 C 0,0 C 85 % 1008,5 hPa 0,0 l/m 4,2 km/h (1 Bft) N 355 0 min 0,000 mm 0 W/m 4,2 C 6,5 C 4,2 km/h (1 Bft) 0,00 %
01.10.2013 02:30 6,5 C 0,0 C 0,0 C 85 % 1008,5 hPa 0,0 l/m 6,7 km/h (2 Bft) N-NW 340 0 min 0,000 mm 0 W/m 4,2 C 5,2 C 6,7 km/h (2 Bft) 0,00 %
01.10.2013 02:35 6,4 C 0,0 C 0,0 C 85 % 1008,5 hPa 0,0 l/m 2,1 km/h (1 Bft) W-NW 290 0 min 0,000 mm 0 W/m 4,1 C 6,4 C 2,1 km/h (1 Bft) 0,00 %
01.10.2013 02:40 6,4 C 0,0 C 0,0 C 85 % 1008,5 hPa 0,0 l/m 1,5 km/h (1 Bft) N 10 0 min 0,000 mm 0 W/m 4,1 C 6,4 C 1,5 km/h (1 Bft) 0,00 %
01.10.2013 02:45 6,5 C 0,0 C 0,0 C 85 % 1008,5 hPa 0,0 l/m 4,8 km/h (1 Bft) N-NO 15 0 min 0,000 mm 0 W/m 4,2 C 5,9 C 4,8 km/h (1 Bft) 0,00 %
01.10.2013 02:50 6,4 C 0,0 C 0,0 C 85 % 1008,5 hPa 0,0 l/m 6,4 km/h (2 Bft) N 10 0 min 0,000 mm 0 W/m 4,1 C 5,2 C 6,4 km/h (2 Bft) 0,00 %
01.10.2013 02:55 6,5 C 0,0 C 0,0 C 85 % 1008,5 hPa 0,0 l/m 7,0 km/h (2 Bft) N 355 0 min 0,000 mm 0 W/m 4,2 C 5,2 C 7,0 km/h (2 Bft) 0,00 %
01.10.2013 03:00 6,4 C 0,0 C 0,0 C 85 % 1008,5 hPa 0,0 l/m 4,2 km/h (1 Bft) W 280 0 min 0,000 mm 0 W/m 4,1 C 6,4 C 4,2 km/h (1 Bft) 0,00 %
01.10.2013 03:05 6,5 C 0,0 C 0,0 C 85 % 1008,5 hPa 0,0 l/m 3,9 km/h (1 Bft) NW 315 0 min 0,000 mm 0 W/m 4,2 C 6,5 C 3,9 km/h (1 Bft) 0,00 %
01.10.2013 03:10 6,5 C 0,0 C 0,0 C 85 % 1008,5 hPa 0,0 l/m 3,6 km/h (1 Bft) W-NW 300 0 min 0,000 mm 0 W/m 4,2 C 6,5 C 3,6 km/h (1 Bft) 0,00 %
01.10.2013 03:15 6,6 C 0,0 C 0,0 C 85 % 1008,5 hPa 0,0 l/m 5,1 km/h (1 Bft) N-NO 25 0 min 0,000 mm 0 W/m 4,3 C 5,9 C 5,1 km/h (1 Bft) 0,00 %
01.10.2013 03:20 6,5 C 0,0 C 0,0 C 85 % 1008,5 hPa 0,0 l/m 0,6 km/h (0 Bft) NW 325 0 min 0,000 mm 0 W/m 4,2 C 6,5 C 0,6 km/h (0 Bft) 0,00 %
01.10.2013 03:25 6,5 C 0,0 C 0,0 C 85 % 1008,5 hPa 0,0 l/m 0,0 km/h (0 Bft) O-SO 105 0 min 0,000 mm 0 W/m 4,2 C 6,5 C 0,0 km/h (0 Bft) 0,00 %
01.10.2013 03:30 6,5 C 0,0 C 0,0 C 85 % 1008,5 hPa 0,0 l/m 5,4 km/h (1 Bft) W 265 0 min 0,000 mm 0 W/m 4,2 C 5,6 C 5,4 km/h (1 Bft) 0,00 %
01.10.2013 03:35 6,5 C 0,0 C 0,0 C 85 % 1008,5 hPa 0,0 l/m 3,0 km/h (1 Bft) S 180 0 min 0,000 mm 0 W/m 4,2 C 6,5 C 3,0 km/h (1 Bft) 0,00 %
01.10.2013 03:40 6,4 C 0,0 C 0,0 C 85 % 1008,5 hPa 0,0 l/m 3,6 km/h (1 Bft) W 280 0 min 0,000 mm 0 W/m 4,1 C 6,4 C 3,6 km/h (1 Bft) 0,00 %
01.10.2013 03:45 6,4 C 0,0 C 0,0 C 85 % 1008,5 hPa 0,0 l/m 5,1 km/h (1 Bft) NO 55 0 min 0,000 mm 0 W/m 4,1 C 5,6 C 5,1 km/h (1 Bft) 0,00 %
01.10.2013 03:50 6,4 C 0,0 C 0,0 C 85 % 1008,5 hPa 0,0 l/m 5,1 km/h (1 Bft) N-NO 30 0 min 0,000 mm 0 W/m 4,1 C 5,6 C 5,1 km/h (1 Bft) 0,00 %
01.10.2013 03:55 6,4 C 0,0 C 0,0 C 85 % 1008,5 hPa 0,0 l/m 7,6 km/h (2 Bft) N-NW 340 0 min 0,000 mm 0 W/m 4,1 C 4,9 C 7,6 km/h (2 Bft) 0,00 %
01.10.2013 04:00 6,5 C 0,0 C 0,0 C 85 % 1008,5 hPa 0,0 l/m 6,1 km/h (2 Bft) N-NO 15 0 min 0,000 mm 0 W/m 4,2 C 5,4 C 6,1 km/h (2 Bft) 0,00 %
01.10.2013 04:05 6,6 C 0,0 C 0,0 C 85 % 1007,5 hPa 0,0 l/m 5,7 km/h (1 Bft) W-NW 290 0 min 0,000 mm 0 W/m 4,3 C 5,7 C 5,7 km/h (1 Bft) 0,00 %
01.10.2013 04:10 6,7 C 0,0 C 0,0 C 85 % 1007,5 hPa 0,0 l/m 8,8 km/h (2 Bft) O-NO 75 0 min 0,000 mm 0 W/m 4,4 C 4,9 C 8,8 km/h (2 Bft) 0,00 %
01.10.2013 04:15 6,7 C 0,0 C 0,0 C 85 % 1007,5 hPa 0,0 l/m 4,5 km/h (1 Bft) NW 325 0 min 0,000 mm 0 W/m 4,4 C 6,7 C 4,5 km/h (1 Bft) 0,00 %
01.10.2013 04:20 6,7 C 0,0 C 0,0 C 85 % 1008,5 hPa 0,0 l/m 4,2 km/h (1 Bft) N-NO 30 0 min 0,000 mm 0 W/m 4,4 C 6,7 C 4,2 km/h (1 Bft) 0,00 %
01.10.2013 04:25 6,8 C 0,0 C 0,0 C 85 % 1008,5 hPa 0,0 l/m 4,2 km/h (1 Bft) S 180 0 min 0,000 mm 0 W/m 4,5 C 6,8 C 4,2 km/h (1 Bft) 0,00 %
01.10.2013 04:30 6,8 C 0,0 C 0,0 C 85 % 1008,5 hPa 0,0 l/m 5,4 km/h (1 Bft) NO 50 0 min 0,000 mm 0 W/m 4,5 C 6,0 C 5,4 km/h (1 Bft) 0,00 %
01.10.2013 04:35 6,8 C 0,0 C 0,0 C 85 % 1008,5 hPa 0,0 l/m 5,1 km/h (1 Bft) N 10 0 min 0,000 mm 0 W/m 4,5 C 6,1 C 5,1 km/h (1 Bft) 0,00 %
01.10.2013 04:40 6,8 C 0,0 C 0,0 C 85 % 1008,5 hPa 0,0 l/m 4,2 km/h (1 Bft) N-NW 335 0 min 0,000 mm 0 W/m 4,5 C 6,8 C 4,2 km/h (1 Bft) 0,00 %
01.10.2013 04:45 6,8 C 0,0 C 0,0 C 85 % 1008,5 hPa 0,0 l/m 7,0 km/h (2 Bft) NW 320 0 min 0,000 mm 0 W/m 4,5 C 5,5 C 7,0 km/h (2 Bft) 0,00 %
01.10.2013 04:50 6,8 C 0,0 C 0,0 C 85 % 1008,5 hPa 0,0 l/m 2,7 km/h (1 Bft) N-NO 25 0 min 0,000 mm 0 W/m 4,5 C 6,8 C 2,7 km/h (1 Bft) 0,00 %
01.10.2013 04:55 6,9 C 0,0 C 0,0 C 85 % 1008,5 hPa 0,0 l/m 6,4 km/h (2 Bft) N 5 0 min 0,000 mm 0 W/m 4,6 C 5,8 C 6,4 km/h (2 Bft) 0,00 %
01.10.2013 05:00 6,9 C 0,0 C 0,0 C 85 % 1008,5 hPa 0,0 l/m 6,1 km/h (2 Bft) N 355 0 min 0,000 mm 0 W/m 4,6 C 5,9 C 6,1 km/h (2 Bft) 0,00 %
01.10.2013 05:05 6,9 C 0,0 C 0,0 C 85 % 1008,5 hPa 0,0 l/m 6,4 km/h (2 Bft) N-NO 20 0 min 0,000 mm 0 W/m 4,6 C 5,8 C 6,4 km/h (2 Bft) 0,00 %
01.10.2013 05:10 6,9 C 0,0 C 0,0 C 85 % 1008,5 hPa 0,0 l/m 8,5 km/h (2 Bft) N 0 0 min 0,000 mm 0 W/m 4,6 C 5,2 C 8,5 km/h (2 Bft) 0,00 %
01.10.2013 05:15 6,9 C 0,0 C 0,0 C 85 % 1008,5 hPa 0,0 l/m 6,4 km/h (2 Bft) N-NW 335 0 min 0,000 mm 0 W/m 4,6 C 5,8 C 6,4 km/h (2 Bft) 0,00 %
01.10.2013 05:20 6,9 C 0,0 C 0,0 C 85 % 1008,5 hPa 0,0 l/m 2,4 km/h (1 Bft) N-NW 345 0 min 0,000 mm 0 W/m 4,6 C 6,9 C 2,4 km/h (1 Bft) 0,00 %
01.10.2013 05:25 6,8 C 0,0 C 0,0 C 85 % 1008,5 hPa 0,0 l/m 5,4 km/h (1 Bft) NO 35 0 min 0,000 mm 0 W/m 4,5 C 6,0 C 5,4 km/h (1 Bft) 0,00 %
01.10.2013 05:30 6,7 C 0,0 C 0,0 C 85 % 1008,5 hPa 0,0 l/m 7,9 km/h (2 Bft) NO 40 0 min 0,000 mm 0 W/m 4,4 C 5,2 C 7,9 km/h (2 Bft) 0,00 %
01.10.2013 05:35 6,7 C 0,0 C 0,0 C 85 % 1008,5 hPa 0,0 l/m 4,5 km/h (1 Bft) N-NO 30 0 min 0,000 mm 0 W/m 4,4 C 6,7 C 4,5 km/h (1 Bft) 0,00 %
01.10.2013 05:40 6,7 C 0,0 C 0,0 C 85 % 1008,5 hPa 0,0 l/m 7,9 km/h (2 Bft) SO 145 0 min 0,000 mm 0 W/m 4,4 C 5,2 C 7,9 km/h (2 Bft) 0,00 %
01.10.2013 05:45 6,7 C 0,0 C 0,0 C 85 % 1008,5 hPa 0,0 l/m 3,0 km/h (1 Bft) N 0 0 min 0,000 mm 0 W/m 4,4 C 6,7 C 3,0 km/h (1 Bft) 0,00 %
01.10.2013 05:50 6,6 C 0,0 C 0,0 C 85 % 1008,5 hPa 0,0 l/m 3,6 km/h (1 Bft) NO 55 0 min 0,000 mm 0 W/m 4,3 C 6,6 C 3,6 km/h (1 Bft) 0,00 %
01.10.2013 05:55 6,6 C 0,0 C 0,0 C 85 % 1008,5 hPa 0,0 l/m 5,4 km/h (1 Bft) S-SW 210 0 min 0,000 mm 0 W/m 4,3 C 5,8 C 5,4 km/h (1 Bft) 0,00 %
01.10.2013 06:00 6,6 C 0,0 C 0,0 C 85 % 1008,5 hPa 0,0 l/m 6,4 km/h (2 Bft) W-NW 295 0 min 0,000 mm 0 W/m 4,3 C 5,4 C 6,4 km/h (2 Bft) 0,00 %
01.10.2013 06:05 6,5 C 0,0 C 0,0 C 85 % 1009,5 hPa 0,0 l/m 4,2 km/h (1 Bft) N-NO 25 0 min 0,000 mm 0 W/m 4,2 C 6,5 C 4,2 km/h (1 Bft) 0,00 %
01.10.2013 06:10 6,4 C 0,0 C 0,0 C 85 % 1009,5 hPa 0,0 l/m 3,9 km/h (1 Bft) O-NO 70 0 min 0,000 mm 0 W/m 4,1 C 6,4 C 3,9 km/h (1 Bft) 0,00 %
01.10.2013 06:15 6,5 C 0,0 C 0,0 C 85 % 1009,5 hPa 0,0 l/m 7,3 km/h (2 Bft) NW 320 0 min 0,000 mm 0 W/m 4,2 C 5,1 C 7,3 km/h (2 Bft) 0,00 %
01.10.2013 06:20 6,5 C 0,0 C 0,0 C 85 % 1008,5 hPa 0,0 l/m 3,9 km/h (1 Bft) O-NO 60 0 min 0,000 mm 0 W/m 4,2 C 6,5 C 3,9 km/h (1 Bft) 0,00 %
01.10.2013 06:25 6,5 C 0,0 C 0,0 C 85 % 1008,5 hPa 0,0 l/m 5,7 km/h (1 Bft) N-NO 25 0 min 0,000 mm 0 W/m 4,2 C 5,5 C 5,7 km/h (1 Bft) 0,00 %
01.10.2013 06:30 6,6 C 0,0 C 0,0 C 85 % 1008,5 hPa 0,0 l/m 3,9 km/h (1 Bft) NW 320 0 min 0,000 mm 0 W/m 4,3 C 6,6 C 3,9 km/h (1 Bft) 0,00 %
01.10.2013 06:35 6,6 C 0,0 C 0,0 C 85 % 1008,5 hPa 0,0 l/m 2,7 km/h (1 Bft) O-SO 120 0 min 0,000 mm 0 W/m 4,3 C 6,6 C 2,7 km/h (1 Bft) 0,00 %
01.10.2013 06:40 6,7 C 0,0 C 0,0 C 85 % 1008,5 hPa 0,0 l/m 5,4 km/h (1 Bft) N 5 0 min 0,000 mm 0 W/m 4,4 C 5,9 C 5,4 km/h (1 Bft) 0,00 %
01.10.2013 06:45 6,8 C 0,0 C 0,0 C 85 % 1008,5 hPa 0,0 l/m 1,2 km/h (1 Bft) N 355 0 min 0,000 mm 0 W/m 4,5 C 6,8 C 1,2 km/h (1 Bft) 0,00 %
01.10.2013 06:50 6,9 C 0,0 C 0,0 C 84 % 1008,5 hPa 0,0 l/m 0,0 km/h (0 Bft) S-SW 200 0 min 0,000 mm 0 W/m 4,4 C 6,9 C 0,0 km/h (0 Bft) 0,00 %
01.10.2013 06:55 7,0 C 0,0 C 0,0 C 84 % 1008,5 hPa 0,0 l/m 2,4 km/h (1 Bft) N-NO 30 0 min 0,000 mm 0 W/m 4,5 C 7,0 C 2,4 km/h (1 Bft) 0,00 %
01.10.2013 07:00 7,1 C 0,0 C 0,0 C 84 % 1008,5 hPa 0,0 l/m 6,7 km/h (2 Bft) S-SO 160 0 min 0,000 mm 0 W/m 4,6 C 5,9 C 6,7 km/h (2 Bft) 0,00 %
01.10.2013 07:05 7,2 C 0,0 C 0,0 C 83 % 1008,5 hPa 0,0 l/m 7,3 km/h (2 Bft) N-NO 15 0 min 0,000 mm 0 W/m 4,5 C 5,9 C 7,3 km/h (2 Bft) 0,00 %
01.10.2013 07:10 7,3 C 0,0 C 0,0 C 83 % 1008,5 hPa 0,0 l/m 7,0 km/h (2 Bft) N 0 0 min 0,000 mm 0 W/m 4,6 C 6,1 C 7,0 km/h (2 Bft) 0,00 %
01.10.2013 07:15 7,3 C 0,0 C 0,0 C 83 % 1008,5 hPa 0,0 l/m 5,4 km/h (1 Bft) NW 325 0 min 0,000 mm 0 W/m 4,6 C 6,6 C 5,4 km/h (1 Bft) 0,00 %
01.10.2013 07:20 7,3 C 0,0 C 0,0 C 83 % 1009,5 hPa 0,0 l/m 5,7 km/h (1 Bft) N 10 0 min 0,000 mm 0 W/m 4,6 C 6,5 C 5,7 km/h (1 Bft) 0,00 %
01.10.2013 07:25 7,3 C 0,0 C 0,0 C 82 % 1009,5 hPa 0,0 l/m 8,2 km/h (2 Bft) O 90 0 min 0,000 mm 0 W/m 4,4 C 5,8 C 8,2 km/h (2 Bft) 0,00 %
01.10.2013 07:30 7,2 C 0,0 C 0,0 C 82 % 1009,5 hPa 0,0 l/m 4,2 km/h (1 Bft) NO 55 0 min 0,000 mm 0 W/m 4,3 C 7,2 C 4,2 km/h (1 Bft) 0,00 %
01.10.2013 07:35 7,0 C 0,0 C 0,0 C 82 % 1009,5 hPa 0,0 l/m 6,1 km/h (2 Bft) S 190 0 min 0,000 mm 0 W/m 4,1 C 6,0 C 6,1 km/h (2 Bft) 0,00 %
01.10.2013 07:40 6,9 C 0,0 C 0,0 C 83 % 1009,5 hPa 0,0 l/m 9,7 km/h (2 Bft) NO 45 0 min 0,000 mm 0 W/m 4,2 C 5,0 C 9,7 km/h (2 Bft) 0,00 %
01.10.2013 07:45 6,9 C 0,0 C 0,0 C 83 % 1009,5 hPa 0,0 l/m 8,8 km/h (2 Bft) NO 55 0 min 0,000 mm 0 W/m 4,2 C 5,2 C 8,8 km/h (2 Bft) 0,00 %
01.10.2013 07:50 6,9 C 0,0 C 0,0 C 82 % 1009,5 hPa 0,0 l/m 4,8 km/h (1 Bft) O 90 0 min 0,000 mm 0 W/m 4,0 C 6,3 C 4,8 km/h (1 Bft) 0,00 %
01.10.2013 07:55 7,0 C 0,0 C 0,0 C 82 % 1009,5 hPa 0,0 l/m 4,2 km/h (1 Bft) NO 55 0 min 0,000 mm 0 W/m 4,1 C 7,0 C 4,2 km/h (1 Bft) 0,00 %
01.10.2013 08:00 6,8 C 0,0 C 0,0 C 82 % 1009,5 hPa 0,0 l/m 5,4 km/h (1 Bft) N 10 0 min 0,000 mm 0 W/m 3,9 C 6,0 C 5,4 km/h (1 Bft) 0,00 %
01.10.2013 08:05 6,9 C 0,0 C 0,0 C 82 % 1009,5 hPa 0,0 l/m 7,9 km/h (2 Bft) N 355 0 min 0,000 mm 0 W/m 4,0 C 5,4 C 7,9 km/h (2 Bft) 0,00 %
01.10.2013 08:10 6,9 C 0,0 C 0,0 C 82 % 1009,5 hPa 0,0 l/m 4,8 km/h (1 Bft) N-NW 330 0 min 0,000 mm 0 W/m 4,0 C 6,3 C 4,8 km/h (1 Bft) 0,00 %
01.10.2013 08:15 7,0 C 0,0 C 0,0 C 82 % 1009,5 hPa 0,0 l/m 6,1 km/h (2 Bft) S 180 0 min 0,000 mm 0 W/m 4,1 C 6,0 C 6,1 km/h (2 Bft) 0,00 %
01.10.2013 08:20 7,1 C 0,0 C 0,0 C 82 % 1009,5 hPa 0,0 l/m 10,0 km/h (2 Bft) O-NO 70 0 min 0,000 mm 0 W/m 4,2 C 5,2 C 10,0 km/h (2 Bft) 0,00 %
01.10.2013 08:25 7,1 C 0,0 C 0,0 C 82 % 1009,5 hPa 0,0 l/m 7,6 km/h (2 Bft) N 5 0 min 0,000 mm 0 W/m 4,2 C 5,7 C 7,6 km/h (2 Bft) 0,00 %
01.10.2013 08:30 7,1 C 0,0 C 0,0 C 81 % 1009,5 hPa 0,0 l/m 5,1 km/h (1 Bft) N 0 0 min 0,000 mm 0 W/m 4,1 C 6,4 C 5,1 km/h (1 Bft) 0,00 %
01.10.2013 08:35 7,2 C 0,0 C 0,0 C 81 % 1009,5 hPa 0,0 l/m 6,1 km/h (2 Bft) SW 230 0 min 0,000 mm 0 W/m 4,2 C 6,2 C 6,1 km/h (2 Bft) 0,00 %
01.10.2013 08:40 7,3 C 0,0 C 0,0 C 81 % 1009,5 hPa 0,0 l/m 6,1 km/h (2 Bft) NO 40 0 min 0,000 mm 0 W/m 4,3 C 6,3 C 6,1 km/h (2 Bft) 0,00 %
01.10.2013 08:45 7,6 C 0,0 C 0,0 C 81 % 1009,5 hPa 0,0 l/m 9,7 km/h (2 Bft) O 90 0 min 0,000 mm 0 W/m 4,6 C 5,8 C 9,7 km/h (2 Bft) 0,00 %
01.10.2013 08:50 7,7 C 0,0 C 0,0 C 81 % 1009,5 hPa 0,0 l/m 3,3 km/h (1 Bft) N 5 0 min 0,000 mm 0 W/m 4,7 C 7,7 C 3,3 km/h (1 Bft) 0,00 %
01.10.2013 08:55 7,8 C 0,0 C 0,0 C 80 % 1009,5 hPa 0,0 l/m 4,5 km/h (1 Bft) N-NW 345 0 min 0,000 mm 0 W/m 4,6 C 7,8 C 4,5 km/h (1 Bft) 0,00 %
01.10.2013 09:00 8,1 C 0,0 C 0,0 C 80 % 1009,5 hPa 0,0 l/m 1,2 km/h (1 Bft) W-NW 285 0 min 0,000 mm 0 W/m 4,9 C 8,1 C 1,2 km/h (1 Bft) 0,00 %
01.10.2013 09:05 8,6 C 0,0 C 0,0 C 79 % 1009,5 hPa 0,0 l/m 4,5 km/h (1 Bft) N 5 0 min 0,000 mm 0 W/m 5,2 C 8,6 C 4,5 km/h (1 Bft) 0,00 %
01.10.2013 09:10 8,8 C 0,0 C 0,0 C 78 % 1009,5 hPa 0,0 l/m 1,2 km/h (1 Bft) O 90 0 min 0,000 mm 0 W/m 5,2 C 8,8 C 1,2 km/h (1 Bft) 0,00 %
01.10.2013 09:15 9,0 C 0,0 C 0,0 C 77 % 1009,5 hPa 0,0 l/m 0,0 km/h (0 Bft) N 5 0 min 0,000 mm 0 W/m 5,2 C 9,0 C 0,0 km/h (0 Bft) 0,00 %
01.10.2013 09:20 9,3 C 0,0 C 0,0 C 77 % 1009,5 hPa 0,0 l/m 0,0 km/h (0 Bft) N-NW 345 0 min 0,000 mm 0 W/m 5,5 C 9,3 C 0,0 km/h (0 Bft) 0,00 %
01.10.2013 09:25 9,5 C 0,0 C 0,0 C 76 % 1009,5 hPa 0,0 l/m 3,9 km/h (1 Bft) NO 45 0 min 0,000 mm 0 W/m 5,5 C 9,5 C 3,9 km/h (1 Bft) 0,00 %
01.10.2013 09:30 9,7 C 0,0 C 0,0 C 75 % 1009,5 hPa 0,0 l/m 7,9 km/h (2 Bft) N-NO 30 0 min 0,000 mm 0 W/m 5,5 C 8,7 C 7,9 km/h (2 Bft) 0,00 %
01.10.2013 09:35 10,0 C 0,0 C 0,0 C 75 % 1009,5 hPa 0,0 l/m 6,4 km/h (2 Bft) NO 55 0 min 0,000 mm 0 W/m 5,8 C 9,4 C 6,4 km/h (2 Bft) 0,00 %
01.10.2013 09:40 10,4 C 0,0 C 0,0 C 74 % 1009,5 hPa 0,0 l/m 4,8 km/h (1 Bft) O 90 0 min 0,000 mm 0 W/m 6,0 C 10,4 C 4,8 km/h (1 Bft) 0,00 %
01.10.2013 09:45 10,6 C 0,0 C 0,0 C 73 % 1009,5 hPa 0,0 l/m 11,5 km/h (2 Bft) N 10 0 min 0,000 mm 0 W/m 6,0 C 10,6 C 11,5 km/h (2 Bft) 0,00 %
01.10.2013 09:50 10,8 C 0,0 C 0,0 C 73 % 1009,5 hPa 0,0 l/m 0,0 km/h (0 Bft) N-NW 330 0 min 0,000 mm 0 W/m 6,2 C 10,8 C 0,0 km/h (0 Bft) 0,00 %
01.10.2013 09:55 11,2 C 0,0 C 0,0 C 72 % 1009,5 hPa 0,0 l/m 7,3 km/h (2 Bft) NO 45 0 min 0,000 mm 0 W/m 6,3 C 11,2 C 7,3 km/h (2 Bft) 0,00 %
01.10.2013 10:00 11,4 C 0,0 C 0,0 C 72 % 1009,5 hPa 0,0 l/m 6,1 km/h (2 Bft) N-NO 30 0 min 0,000 mm 0 W/m 6,5 C 11,4 C 6,1 km/h (2 Bft) 0,00 %
01.10.2013 10:05 12,0 C 0,0 C 0,0 C 70 % 1009,5 hPa 0,0 l/m 2,4 km/h (1 Bft) W-SW 255 0 min 0,000 mm 0 W/m 6,7 C 12,0 C 2,4 km/h (1 Bft) 0,00 %
01.10.2013 10:10 12,1 C 0,0 C 0,0 C 70 % 1009,5 hPa 0,0 l/m 0,0 km/h (0 Bft) N-NO 20 0 min 0,000 mm 0 W/m 6,8 C 12,1 C 0,0 km/h (0 Bft) 0,00 %
01.10.2013 10:15 12,2 C 0,0 C 0,0 C 70 % 1009,5 hPa 0,0 l/m 0,0 km/h (0 Bft) O 85 0 min 0,000 mm 0 W/m 6,9 C 12,2 C 0,0 km/h (0 Bft) 0,00 %
01.10.2013 10:20 12,2 C 0,0 C 0,0 C 70 % 1009,5 hPa 0,0 l/m 4,8 km/h (1 Bft) N-NO 15 0 min 0,000 mm 0 W/m 6,9 C 12,2 C 4,8 km/h (1 Bft) 0,00 %
01.10.2013 10:25 12,5 C 0,0 C 0,0 C 69 % 1009,5 hPa 0,0 l/m 9,1 km/h (2 Bft) SO 125 0 min 0,000 mm 0 W/m 7,0 C 12,5 C 9,1 km/h (2 Bft) 0,00 %
01.10.2013 10:30 12,9 C 0,0 C 0,0 C 68 % 1009,5 hPa 0,0 l/m 5,1 km/h (1 Bft) N-NO 30 0 min 0,000 mm 0 W/m 7,1 C 12,9 C 5,1 km/h (1 Bft) 0,00 %
01.10.2013 10:35 13,5 C 0,0 C 0,0 C 68 % 1009,5 hPa 0,0 l/m 2,4 km/h (1 Bft) SW 215 0 min 0,000 mm 0 W/m 7,7 C 13,5 C 2,4 km/h (1 Bft) 0,00 %
01.10.2013 10:40 13,3 C 0,0 C 0,0 C 67 % 1009,5 hPa 0,0 l/m 5,4 km/h (1 Bft) NO 35 0 min 0,000 mm 0 W/m 7,3 C 13,3 C 5,4 km/h (1 Bft) 0,00 %
01.10.2013 10:45 13,4 C 0,0 C 0,0 C 67 % 1009,5 hPa 0,0 l/m 8,2 km/h (2 Bft) NO 35 0 min 0,000 mm 0 W/m 7,4 C 13,4 C 8,2 km/h (2 Bft) 0,00 %
01.10.2013 10:50 13,7 C 0,0 C 0,0 C 67 % 1009,5 hPa 0,0 l/m 5,1 km/h (1 Bft) NO 45 0 min 0,000 mm 0 W/m 7,7 C 13,7 C 5,1 km/h (1 Bft) 0,00 %
01.10.2013 10:55 13,7 C 0,0 C 0,0 C 67 % 1009,5 hPa 0,0 l/m 7,0 km/h (2 Bft) N-NO 30 0 min 0,000 mm 0 W/m 7,7 C 13,7 C 7,0 km/h (2 Bft) 0,00 %
01.10.2013 11:00 14,1 C 0,0 C 0,0 C 66 % 1009,5 hPa 0,0 l/m 5,1 km/h (1 Bft) O-SO 105 0 min 0,000 mm 0 W/m 7,8 C 14,1 C 5,1 km/h (1 Bft) 0,00 %
01.10.2013 11:05 13,7 C 0,0 C 0,0 C 66 % 1009,5 hPa 0,0 l/m 10,9 km/h (2 Bft) S 175 0 min 0,000 mm 0 W/m 7,5 C 13,7 C 10,9 km/h (2 Bft) 0,00 %
01.10.2013 11:10 13,7 C 0,0 C 0,0 C 65 % 1009,5 hPa 0,0 l/m 10,0 km/h (2 Bft) S-SO 160 0 min 0,000 mm 0 W/m 7,2 C 13,7 C 10,0 km/h (2 Bft) 0,00 %
01.10.2013 11:15 13,0 C 0,0 C 0,0 C 66 % 1009,5 hPa 0,0 l/m 9,1 km/h (2 Bft) O-SO 115 0 min 0,000 mm 0 W/m 6,8 C 13,0 C 9,1 km/h (2 Bft) 0,00 %
01.10.2013 11:20 13,0 C 0,0 C 0,0 C 67 % 1009,5 hPa 0,0 l/m 7,3 km/h (2 Bft) N 355 0 min 0,000 mm 0 W/m 7,0 C 13,0 C 7,3 km/h (2 Bft) 0,00 %
01.10.2013 11:25 13,3 C 0,0 C 0,0 C 67 % 1009,5 hPa 0,0 l/m 5,1 km/h (1 Bft) O-SO 110 0 min 0,000 mm 0 W/m 7,3 C 13,3 C 5,1 km/h (1 Bft) 0,00 %
01.10.2013 11:30 13,2 C 0,0 C 0,0 C 67 % 1009,5 hPa 0,0 l/m 8,5 km/h (2 Bft) O 95 0 min 0,000 mm 0 W/m 7,2 C 13,2 C 8,5 km/h (2 Bft) 0,00 %
01.10.2013 11:35 13,5 C 0,0 C 0,0 C 67 % 1010,5 hPa 0,0 l/m 0,0 km/h (0 Bft) O 90 0 min 0,000 mm 0 W/m 7,5 C 13,5 C 0,0 km/h (0 Bft) 0,00 %
01.10.2013 11:40 13,4 C 0,0 C 0,0 C 66 % 1010,5 hPa 0,0 l/m 7,6 km/h (2 Bft) W-SW 240 0 min 0,000 mm 0 W/m 7,2 C 13,4 C 7,6 km/h (2 Bft) 0,00 %
01.10.2013 11:45 13,2 C 0,0 C 0,0 C 67 % 1010,5 hPa 0,0 l/m 8,5 km/h (2 Bft) O 90 0 min 0,000 mm 0 W/m 7,2 C 13,2 C 8,5 km/h (2 Bft) 0,00 %
01.10.2013 11:50 13,3 C 0,0 C 0,0 C 67 % 1010,5 hPa 0,0 l/m 5,7 km/h (1 Bft) NO 35 0 min 0,000 mm 0 W/m 7,3 C 13,3 C 5,7 km/h (1 Bft) 0,00 %
01.10.2013 11:55 13,5 C 0,0 C 0,0 C 67 % 1010,5 hPa 0,0 l/m 9,4 km/h (2 Bft) O-NO 65 0 min 0,000 mm 0 W/m 7,5 C 13,5 C 9,4 km/h (2 Bft) 0,00 %
01.10.2013 12:00 13,8 C 0,0 C 0,0 C 66 % 1010,5 hPa 0,0 l/m 9,1 km/h (2 Bft) S-SW 200 0 min 0,000 mm 0 W/m 7,6 C 13,8 C 9,1 km/h (2 Bft) 0,00 %
01.10.2013 12:05 14,0 C 0,0 C 0,0 C 65 % 1010,5 hPa 0,0 l/m 7,6 km/h (2 Bft) O-NO 70 0 min 0,000 mm 0 W/m 7,5 C 14,0 C 7,6 km/h (2 Bft) 0,00 %
01.10.2013 12:10 14,8 C 0,0 C 0,0 C 65 % 1010,5 hPa 0,0 l/m 7,6 km/h (2 Bft) N-NO 20 0 min 0,000 mm 0 W/m 8,3 C 14,8 C 7,6 km/h (2 Bft) 0,00 %
01.10.2013 12:15 15,2 C 0,0 C 0,0 C 64 % 1010,5 hPa 0,0 l/m 3,3 km/h (1 Bft) NO 40 0 min 0,000 mm 0 W/m 8,4 C 15,2 C 3,3 km/h (1 Bft) 0,00 %
01.10.2013 12:20 15,0 C 0,0 C 0,0 C 64 % 1010,5 hPa 0,0 l/m 6,1 km/h (2 Bft) NO 55 0 min 0,000 mm 0 W/m 8,2 C 15,0 C 6,1 km/h (2 Bft) 0,00 %
01.10.2013 12:25 15,0 C 0,0 C 0,0 C 65 % 1010,5 hPa 0,0 l/m 7,0 km/h (2 Bft) O 95 0 min 0,000 mm 0 W/m 8,5 C 15,0 C 7,0 km/h (2 Bft) 0,00 %
01.10.2013 12:30 15,4 C 0,0 C 0,0 C 63 % 1010,5 hPa 0,0 l/m 3,9 km/h (1 Bft) SO 135 0 min 0,000 mm 0 W/m 8,4 C 15,4 C 3,9 km/h (1 Bft) 0,00 %
01.10.2013 12:35 16,1 C 0,0 C 0,0 C 63 % 1010,5 hPa 0,0 l/m 2,7 km/h (1 Bft) NO 55 0 min 0,000 mm 0 W/m 9,1 C 16,1 C 2,7 km/h (1 Bft) 0,00 %
01.10.2013 12:40 15,6 C 0,0 C 0,0 C 63 % 1010,5 hPa 0,0 l/m 11,2 km/h (2 Bft) O 90 0 min 0,000 mm 0 W/m 8,6 C 15,6 C 11,2 km/h (2 Bft) 0,00 %
01.10.2013 12:45 15,6 C 0,0 C 0,0 C 63 % 1010,5 hPa 0,0 l/m 8,5 km/h (2 Bft) NO 45 0 min 0,000 mm 0 W/m 8,6 C 15,6 C 8,5 km/h (2 Bft) 0,00 %
01.10.2013 12:50 15,8 C 0,0 C 0,0 C 63 % 1010,5 hPa 0,0 l/m 10,9 km/h (2 Bft) NO 35 0 min 0,000 mm 0 W/m 8,8 C 15,8 C 10,9 km/h (2 Bft) 0,00 %
01.10.2013 12:55 15,9 C 0,0 C 0,0 C 62 % 1010,5 hPa 0,0 l/m 6,1 km/h (2 Bft) O-SO 120 0 min 0,000 mm 0 W/m 8,6 C 15,9 C 6,1 km/h (2 Bft) 0,00 %
01.10.2013 13:00 15,8 C 0,0 C 0,0 C 62 % 1010,5 hPa 0,0 l/m 11,8 km/h (2 Bft) N-NO 25 0 min 0,000 mm 0 W/m 8,5 C 15,8 C 11,8 km/h (2 Bft) 0,00 %
01.10.2013 13:05 16,2 C 0,0 C 0,0 C 61 % 1009,5 hPa 0,0 l/m 8,2 km/h (2 Bft) NO 35 0 min 0,000 mm 0 W/m 8,7 C 16,2 C 8,2 km/h (2 Bft) 0,00 %
01.10.2013 13:10 16,6 C 0,0 C 0,0 C 62 % 1009,5 hPa 0,0 l/m 6,1 km/h (2 Bft) O-SO 105 0 min 0,000 mm 0 W/m 9,3 C 16,6 C 6,1 km/h (2 Bft) 0,00 %
01.10.2013 13:15 16,5 C 0,0 C 0,0 C 61 % 1009,5 hPa 0,0 l/m 6,1 km/h (2 Bft) S-SW 210 0 min 0,000 mm 0 W/m 9,0 C 16,5 C 6,1 km/h (2 Bft) 0,00 %
01.10.2013 13:20 16,4 C 0,0 C 0,0 C 60 % 1009,5 hPa 0,0 l/m 9,1 km/h (2 Bft) N 10 0 min 0,000 mm 0 W/m 8,6 C 16,4 C 9,1 km/h (2 Bft) 0,00 %
01.10.2013 13:25 16,7 C 0,0 C 0,0 C 61 % 1009,5 hPa 0,0 l/m 12,4 km/h (3 Bft) W-NW 290 0 min 0,000 mm 0 W/m 9,1 C 16,7 C 12,4 km/h (3 Bft) 0,00 %
01.10.2013 13:30 16,4 C 0,0 C 0,0 C 60 % 1009,5 hPa 0,0 l/m 10,3 km/h (2 Bft) SO 135 0 min 0,000 mm 0 W/m 8,6 C 16,4 C 10,3 km/h (2 Bft) 0,00 %
01.10.2013 13:35 16,4 C 0,0 C 0,0 C 60 % 1009,5 hPa 0,0 l/m 15,1 km/h (3 Bft) N-NO 30 0 min 0,000 mm 0 W/m 8,6 C 16,4 C 15,1 km/h (3 Bft) 0,00 %
01.10.2013 13:40 16,4 C 0,0 C 0,0 C 60 % 1009,5 hPa 0,0 l/m 11,5 km/h (2 Bft) S-SW 195 0 min 0,000 mm 0 W/m 8,6 C 16,4 C 11,5 km/h (2 Bft) 0,00 %
01.10.2013 13:45 16,3 C 0,0 C 0,0 C 60 % 1009,5 hPa 0,0 l/m 11,5 km/h (2 Bft) N-NO 25 0 min 0,000 mm 0 W/m 8,5 C 16,3 C 11,5 km/h (2 Bft) 0,00 %
01.10.2013 13:50 16,3 C 0,0 C 0,0 C 60 % 1010,5 hPa 0,0 l/m 13,0 km/h (3 Bft) S-SW 205 0 min 0,000 mm 0 W/m 8,5 C 16,3 C 13,0 km/h (3 Bft) 0,00 %
01.10.2013 13:55 16,6 C 0,0 C 0,0 C 60 % 1010,5 hPa 0,0 l/m 12,1 km/h (2 Bft) N 355 0 min 0,000 mm 0 W/m 8,8 C 16,6 C 12,1 km/h (2 Bft) 0,00 %
01.10.2013 14:00 16,4 C 0,0 C 0,0 C 60 % 1010,5 hPa 0,0 l/m 13,0 km/h (3 Bft) NO 55 0 min 0,000 mm 0 W/m 8,6 C 16,4 C 13,0 km/h (3 Bft) 0,00 %
01.10.2013 14:05 16,8 C 0,0 C 0,0 C 60 % 1009,5 hPa 0,0 l/m 12,4 km/h (3 Bft) SW 225 0 min 0,000 mm 0 W/m 9,0 C 16,8 C 12,4 km/h (3 Bft) 0,00 %
01.10.2013 14:10 16,7 C 0,0 C 0,0 C 59 % 1009,5 hPa 0,0 l/m 13,3 km/h (3 Bft) O-SO 120 0 min 0,000 mm 0 W/m 8,6 C 16,7 C 13,3 km/h (3 Bft) 0,00 %
01.10.2013 14:15 16,8 C 0,0 C 0,0 C 59 % 1009,5 hPa 0,0 l/m 12,1 km/h (2 Bft) NO 50 0 min 0,000 mm 0 W/m 8,7 C 16,8 C 12,1 km/h (2 Bft) 0,00 %
01.10.2013 14:20 16,9 C 0,0 C 0,0 C 59 % 1009,5 hPa 0,0 l/m 15,7 km/h (3 Bft) W-NW 285 0 min 0,000 mm 0 W/m 8,8 C 16,9 C 15,7 km/h (3 Bft) 0,00 %
01.10.2013 14:25 16,0 C 0,0 C 0,0 C 60 % 1009,5 hPa 0,0 l/m 13,0 km/h (3 Bft) N-NO 20 0 min 0,000 mm 0 W/m 8,2 C 16,0 C 13,0 km/h (3 Bft) 0,00 %
01.10.2013 14:30 17,2 C 0,0 C 0,0 C 60 % 1009,5 hPa 0,0 l/m 2,4 km/h (1 Bft) O 95 0 min 0,000 mm 0 W/m 9,4 C 17,2 C 2,4 km/h (1 Bft) 0,00 %
01.10.2013 14:35 16,9 C 0,0 C 0,0 C 59 % 1009,5 hPa 0,0 l/m 18,2 km/h (3 Bft) O 85 0 min 0,000 mm 0 W/m 8,8 C 16,9 C 18,2 km/h (3 Bft) 0,00 %
01.10.2013 14:40 16,8 C 0,0 C 0,0 C 59 % 1009,5 hPa 0,0 l/m 10,0 km/h (2 Bft) N-NO 20 0 min 0,000 mm 0 W/m 8,7 C 16,8 C 10,0 km/h (2 Bft) 0,00 %
01.10.2013 14:45 16,8 C 0,0 C 0,0 C 58 % 1009,5 hPa 0,0 l/m 9,7 km/h (2 Bft) NO 50 0 min 0,000 mm 0 W/m 8,5 C 16,8 C 9,7 km/h (2 Bft) 0,00 %
01.10.2013 14:50 17,2 C 0,0 C 0,0 C 58 % 1009,5 hPa 0,0 l/m 9,1 km/h (2 Bft) NW 305 0 min 0,000 mm 0 W/m 8,9 C 17,2 C 9,1 km/h (2 Bft) 0,00 %
01.10.2013 14:55 17,6 C 0,0 C 0,0 C 58 % 1009,5 hPa 0,0 l/m 6,7 km/h (2 Bft) S-SW 210 0 min 0,000 mm 0 W/m 9,2 C 17,6 C 6,7 km/h (2 Bft) 0,00 %
01.10.2013 15:00 17,4 C 0,0 C 0,0 C 58 % 1009,5 hPa 0,0 l/m 7,0 km/h (2 Bft) NO 40 0 min 0,000 mm 0 W/m 9,1 C 17,4 C 7,0 km/h (2 Bft) 0,00 %
01.10.2013 15:05 17,2 C 0,0 C 0,0 C 58 % 1010,5 hPa 0,0 l/m 13,3 km/h (3 Bft) O 90 0 min 0,000 mm 0 W/m 8,9 C 17,2 C 13,3 km/h (3 Bft) 0,00 %
01.10.2013 15:10 17,4 C 0,0 C 0,0 C 57 % 1010,5 hPa 0,0 l/m 10,3 km/h (2 Bft) S-SO 155 0 min 0,000 mm 0 W/m 8,8 C 17,4 C 10,3 km/h (2 Bft) 0,00 %
01.10.2013 15:15 17,1 C 0,0 C 0,0 C 58 % 1010,5 hPa 0,0 l/m 11,5 km/h (2 Bft) O-NO 65 0 min 0,000 mm 0 W/m 8,8 C 17,1 C 11,5 km/h (2 Bft) 0,00 %
01.10.2013 15:20 16,6 C 0,0 C 0,0 C 59 % 1010,5 hPa 0,0 l/m 11,2 km/h (2 Bft) O-SO 105 0 min 0,000 mm 0 W/m 8,6 C 16,6 C 11,2 km/h (2 Bft) 0,00 %
01.10.2013 15:25 17,1 C 0,0 C 0,0 C 59 % 1010,5 hPa 0,0 l/m 6,1 km/h (2 Bft) O-NO 65 0 min 0,000 mm 0 W/m 9,0 C 17,1 C 6,1 km/h (2 Bft) 0,00 %
01.10.2013 15:30 16,6 C 0,0 C 0,0 C 59 % 1010,5 hPa 0,0 l/m 9,7 km/h (2 Bft) NO 55 0 min 0,000 mm 0 W/m 8,6 C 16,6 C 9,7 km/h (2 Bft) 0,00 %
01.10.2013 15:35 16,9 C 0,0 C 0,0 C 58 % 1010,5 hPa 0,0 l/m 8,2 km/h (2 Bft) O 100 0 min 0,000 mm 0 W/m 8,6 C 16,9 C 8,2 km/h (2 Bft) 0,00 %
01.10.2013 15:40 17,0 C 0,0 C 0,0 C 58 % 1010,5 hPa 0,0 l/m 11,2 km/h (2 Bft) N-NO 25 0 min 0,000 mm 0 W/m 8,7 C 17,0 C 11,2 km/h (2 Bft) 0,00 %
01.10.2013 15:45 16,8 C 0,0 C 0,0 C 58 % 1010,5 hPa 0,0 l/m 8,5 km/h (2 Bft) O-NO 70 0 min 0,000 mm 0 W/m 8,5 C 16,8 C 8,5 km/h (2 Bft) 0,00 %
01.10.2013 15:50 16,6 C 0,0 C 0,0 C 59 % 1010,5 hPa 0,0 l/m 11,2 km/h (2 Bft) O-NO 70 0 min 0,000 mm 0 W/m 8,6 C 16,6 C 11,2 km/h (2 Bft) 0,00 %
01.10.2013 15:55 16,6 C 0,0 C 0,0 C 59 % 1010,5 hPa 0,0 l/m 13,0 km/h (3 Bft) S-SO 155 0 min 0,000 mm 0 W/m 8,6 C 16,6 C 13,0 km/h (3 Bft) 0,00 %
01.10.2013 16:00 16,7 C 0,0 C 0,0 C 59 % 1010,5 hPa 0,0 l/m 10,9 km/h (2 Bft) O-NO 65 0 min 0,000 mm 0 W/m 8,6 C 16,7 C 10,9 km/h (2 Bft) 0,00 %
01.10.2013 16:05 17,2 C 0,0 C 0,0 C 59 % 1009,5 hPa 0,0 l/m 7,9 km/h (2 Bft) O-SO 120 0 min 0,000 mm 0 W/m 9,1 C 17,2 C 7,9 km/h (2 Bft) 0,00 %
01.10.2013 16:10 17,2 C 0,0 C 0,0 C 59 % 1009,5 hPa 0,0 l/m 0,0 km/h (0 Bft) SO 130 0 min 0,000 mm 0 W/m 9,1 C 17,2 C 0,0 km/h (0 Bft) 0,00 %
01.10.2013 16:15 17,3 C 0,0 C 0,0 C 59 % 1009,5 hPa 0,0 l/m 0,0 km/h (0 Bft) N-NO 15 0 min 0,000 mm 0 W/m 9,2 C 17,3 C 0,0 km/h (0 Bft) 0,00 %
01.10.2013 16:20 17,3 C 0,0 C 0,0 C 58 % 1010,5 hPa 0,0 l/m 10,0 km/h (2 Bft) O 80 0 min 0,000 mm 0 W/m 9,0 C 17,3 C 10,0 km/h (2 Bft) 0,00 %
01.10.2013 16:25 16,2 C 0,0 C 0,0 C 60 % 1010,5 hPa 0,0 l/m 9,7 km/h (2 Bft) N-NO 15 0 min 0,000 mm 0 W/m 8,4 C 16,2 C 9,7 km/h (2 Bft) 0,00 %
01.10.2013 16:30 16,3 C 0,0 C 0,0 C 60 % 1010,5 hPa 0,0 l/m 7,9 km/h (2 Bft) O 95 0 min 0,000 mm 0 W/m 8,5 C 16,3 C 7,9 km/h (2 Bft) 0,00 %
01.10.2013 16:35 15,5 C 0,0 C 0,0 C 61 % 1010,5 hPa 0,0 l/m 9,7 km/h (2 Bft) O-NO 60 0 min 0,000 mm 0 W/m 8,0 C 15,5 C 9,7 km/h (2 Bft) 0,00 %
01.10.2013 16:40 15,2 C 0,0 C 0,0 C 62 % 1010,5 hPa 0,0 l/m 7,3 km/h (2 Bft) W-NW 285 0 min 0,000 mm 0 W/m 8,0 C 15,2 C 7,3 km/h (2 Bft) 0,00 %
01.10.2013 16:45 16,2 C 0,0 C 0,0 C 61 % 1010,5 hPa 0,0 l/m 7,6 km/h (2 Bft) O 85 0 min 0,000 mm 0 W/m 8,7 C 16,2 C 7,6 km/h (2 Bft) 0,00 %
01.10.2013 16:50 16,2 C 0,0 C 0,0 C 60 % 1010,5 hPa 0,0 l/m 9,7 km/h (2 Bft) O-SO 110 0 min 0,000 mm 0 W/m 8,4 C 16,2 C 9,7 km/h (2 Bft) 0,00 %
01.10.2013 16:55 16,0 C 0,0 C 0,0 C 61 % 1010,5 hPa 0,0 l/m 8,2 km/h (2 Bft) O-SO 115 0 min 0,000 mm 0 W/m 8,5 C 16,0 C 8,2 km/h (2 Bft) 0,00 %
01.10.2013 17:00 15,7 C 0,0 C 0,0 C 61 % 1010,5 hPa 0,0 l/m 3,0 km/h (1 Bft) O-NO 60 0 min 0,000 mm 0 W/m 8,2 C 15,7 C 3,0 km/h (1 Bft) 0,00 %
01.10.2013 17:05 15,5 C 0,0 C 0,0 C 61 % 1010,5 hPa 0,0 l/m 11,5 km/h (2 Bft) O-SO 110 0 min 0,000 mm 0 W/m 8,0 C 15,5 C 11,5 km/h (2 Bft) 0,00 %
01.10.2013 17:10 16,0 C 0,0 C 0,0 C 60 % 1010,5 hPa 0,0 l/m 6,1 km/h (2 Bft) O-NO 60 0 min 0,000 mm 0 W/m 8,2 C 16,0 C 6,1 km/h (2 Bft) 0,00 %
01.10.2013 17:15 16,2 C 0,0 C 0,0 C 60 % 1010,5 hPa 0,0 l/m 8,8 km/h (2 Bft) SO 135 0 min 0,000 mm 0 W/m 8,4 C 16,2 C 8,8 km/h (2 Bft) 0,00 %
01.10.2013 17:20 15,8 C 0,0 C 0,0 C 60 % 1010,5 hPa 0,0 l/m 10,0 km/h (2 Bft) O-NO 65 0 min 0,000 mm 0 W/m 8,1 C 15,8 C 10,0 km/h (2 Bft) 0,00 %
01.10.2013 17:25 15,3 C 0,0 C 0,0 C 60 % 1010,5 hPa 0,0 l/m 9,4 km/h (2 Bft) SO 140 0 min 0,000 mm 0 W/m 7,6 C 15,3 C 9,4 km/h (2 Bft) 0,00 %
01.10.2013 17:30 14,8 C 0,0 C 0,0 C 61 % 1010,5 hPa 0,0 l/m 9,7 km/h (2 Bft) W-SW 240 0 min 0,000 mm 0 W/m 7,4 C 14,8 C 9,7 km/h (2 Bft) 0,00 %
01.10.2013 17:35 14,9 C 0,0 C 0,0 C 62 % 1010,5 hPa 0,0 l/m 7,9 km/h (2 Bft) N-NO 25 0 min 0,000 mm 0 W/m 7,7 C 14,9 C 7,9 km/h (2 Bft) 0,00 %
01.10.2013 17:40 15,0 C 0,0 C 0,0 C 61 % 1010,5 hPa 0,0 l/m 10,0 km/h (2 Bft) O 95 0 min 0,000 mm 0 W/m 7,5 C 15,0 C 10,0 km/h (2 Bft) 0,00 %
01.10.2013 17:45 15,0 C 0,0 C 0,0 C 61 % 1010,5 hPa 0,0 l/m 0,9 km/h (0 Bft) O-NO 75 0 min 0,000 mm 0 W/m 7,5 C 15,0 C 0,9 km/h (0 Bft) 0,00 %
01.10.2013 17:50 14,6 C 0,0 C 0,0 C 62 % 1010,5 hPa 0,0 l/m 6,1 km/h (2 Bft) O-NO 75 0 min 0,000 mm 0 W/m 7,4 C 14,6 C 6,1 km/h (2 Bft) 0,00 %
01.10.2013 17:55 14,6 C 0,0 C 0,0 C 62 % 1010,5 hPa 0,0 l/m 5,4 km/h (1 Bft) O-NO 60 0 min 0,000 mm 0 W/m 7,4 C 14,6 C 5,4 km/h (1 Bft) 0,00 %
01.10.2013 18:00 14,2 C 0,0 C 0,0 C 63 % 1010,5 hPa 0,0 l/m 8,2 km/h (2 Bft) N 350 0 min 0,000 mm 0 W/m 7,3 C 14,2 C 8,2 km/h (2 Bft) 0,00 %
01.10.2013 18:05 14,0 C 0,0 C 0,0 C 64 % 1010,5 hPa 0,0 l/m 9,1 km/h (2 Bft) S-SW 205 0 min 0,000 mm 0 W/m 7,3 C 14,0 C 9,1 km/h (2 Bft) 0,00 %
01.10.2013 18:10 13,8 C 0,0 C 0,0 C 64 % 1010,5 hPa 0,0 l/m 0,0 km/h (0 Bft) NW 315 0 min 0,000 mm 0 W/m 7,1 C 13,8 C 0,0 km/h (0 Bft) 0,00 %
01.10.2013 18:15 13,4 C 0,0 C 0,0 C 66 % 1010,5 hPa 0,0 l/m 5,4 km/h (1 Bft) O-NO 70 0 min 0,000 mm 0 W/m 7,2 C 13,4 C 5,4 km/h (1 Bft) 0,00 %
01.10.2013 18:20 13,2 C 0,0 C 0,0 C 66 % 1011,5 hPa 0,0 l/m 4,2 km/h (1 Bft) S 185 0 min 0,000 mm 0 W/m 7,0 C 13,2 C 4,2 km/h (1 Bft) 0,00 %
01.10.2013 18:25 13,0 C 0,0 C 0,0 C 67 % 1011,5 hPa 0,0 l/m 7,0 km/h (2 Bft) O-NO 65 0 min 0,000 mm 0 W/m 7,0 C 13,0 C 7,0 km/h (2 Bft) 0,00 %
01.10.2013 18:30 12,8 C 0,0 C 0,0 C 67 % 1011,5 hPa 0,0 l/m 7,6 km/h (2 Bft) O-NO 65 0 min 0,000 mm 0 W/m 6,8 C 12,8 C 7,6 km/h (2 Bft) 0,00 %
01.10.2013 18:35 12,6 C 0,0 C 0,0 C 68 % 1011,5 hPa 0,0 l/m 2,7 km/h (1 Bft) NO 50 0 min 0,000 mm 0 W/m 6,9 C 12,6 C 2,7 km/h (1 Bft) 0,00 %
01.10.2013 18:40 12,5 C 0,0 C 0,0 C 68 % 1011,5 hPa 0,0 l/m 1,8 km/h (1 Bft) O-NO 65 0 min 0,000 mm 0 W/m 6,8 C 12,5 C 1,8 km/h (1 Bft) 0,00 %
01.10.2013 18:45 12,3 C 0,0 C 0,0 C 69 % 1011,5 hPa 0,0 l/m 4,8 km/h (1 Bft) O-SO 110 0 min 0,000 mm 0 W/m 6,8 C 12,3 C 4,8 km/h (1 Bft) 0,00 %
01.10.2013 18:50 12,2 C 0,0 C 0,0 C 69 % 1011,5 hPa 0,0 l/m 0,0 km/h (0 Bft) O 80 0 min 0,000 mm 0 W/m 6,7 C 12,2 C 0,0 km/h (0 Bft) 0,00 %
01.10.2013 18:55 12,2 C 0,0 C 0,0 C 69 % 1011,5 hPa 0,0 l/m 3,0 km/h (1 Bft) N-NO 25 0 min 0,000 mm 0 W/m 6,7 C 12,2 C 3,0 km/h (1 Bft) 0,00 %
01.10.2013 19:00 12,0 C 0,0 C 0,0 C 70 % 1011,5 hPa 0,0 l/m 5,4 km/h (1 Bft) O-SO 120 0 min 0,000 mm 0 W/m 6,7 C 12,0 C 5,4 km/h (1 Bft) 0,00 %
01.10.2013 19:05 11,9 C 0,0 C 0,0 C 70 % 1011,5 hPa 0,0 l/m 5,1 km/h (1 Bft) NO 55 0 min 0,000 mm 0 W/m 6,6 C 11,9 C 5,1 km/h (1 Bft) 0,00 %
01.10.2013 19:10 12,0 C 0,0 C 0,0 C 70 % 1011,5 hPa 0,0 l/m 5,4 km/h (1 Bft) NO 55 0 min 0,000 mm 0 W/m 6,7 C 12,0 C 5,4 km/h (1 Bft) 0,00 %
01.10.2013 19:15 11,9 C 0,0 C 0,0 C 70 % 1011,5 hPa 0,0 l/m 5,1 km/h (1 Bft) O-SO 105 0 min 0,000 mm 0 W/m 6,6 C 11,9 C 5,1 km/h (1 Bft) 0,00 %
01.10.2013 19:20 11,8 C 0,0 C 0,0 C 70 % 1011,5 hPa 0,0 l/m 11,2 km/h (2 Bft) W-NW 285 0 min 0,000 mm 0 W/m 6,5 C 11,8 C 11,2 km/h (2 Bft) 0,00 %
01.10.2013 19:25 11,6 C 0,0 C 0,0 C 71 % 1011,5 hPa 0,0 l/m 0,0 km/h (0 Bft) W-NW 290 0 min 0,000 mm 0 W/m 6,5 C 11,6 C 0,0 km/h (0 Bft) 0,00 %
01.10.2013 19:30 11,6 C 0,0 C 0,0 C 71 % 1011,5 hPa 0,0 l/m 0,3 km/h (0 Bft) N-NW 345 0 min 0,000 mm 0 W/m 6,5 C 11,6 C 0,3 km/h (0 Bft) 0,00 %
01.10.2013 19:35 11,6 C 0,0 C 0,0 C 72 % 1011,5 hPa 0,0 l/m 3,0 km/h (1 Bft) W-NW 300 0 min 0,000 mm 0 W/m 6,7 C 11,6 C 3,0 km/h (1 Bft) 0,00 %
01.10.2013 19:40 11,6 C 0,0 C 0,0 C 72 % 1011,5 hPa 0,0 l/m 0,9 km/h (0 Bft) NO 45 0 min 0,000 mm 0 W/m 6,7 C 11,6 C 0,9 km/h (0 Bft) 0,00 %
01.10.2013 19:45 11,6 C 0,0 C 0,0 C 71 % 1011,5 hPa 0,0 l/m 3,0 km/h (1 Bft) N 0 0 min 0,000 mm 0 W/m 6,5 C 11,6 C 3,0 km/h (1 Bft) 0,00 %
01.10.2013 19:50 11,6 C 0,0 C 0,0 C 71 % 1012,5 hPa 0,0 l/m 3,9 km/h (1 Bft) N-NO 25 0 min 0,000 mm 0 W/m 6,5 C 11,6 C 3,9 km/h (1 Bft) 0,00 %
01.10.2013 19:55 11,4 C 0,0 C 0,0 C 72 % 1012,5 hPa 0,0 l/m 1,5 km/h (1 Bft) O 95 0 min 0,000 mm 0 W/m 6,5 C 11,4 C 1,5 km/h (1 Bft) 0,00 %
01.10.2013 20:00 11,2 C 0,0 C 0,0 C 72 % 1012,5 hPa 0,0 l/m 0,0 km/h (0 Bft) N-NW 345 0 min 0,000 mm 0 W/m 6,3 C 11,2 C 0,0 km/h (0 Bft) 0,00 %
01.10.2013 20:05 10,9 C 0,0 C 0,0 C 73 % 1011,5 hPa 0,0 l/m 3,6 km/h (1 Bft) W-SW 255 0 min 0,000 mm 0 W/m 6,3 C 10,9 C 3,6 km/h (1 Bft) 0,00 %
01.10.2013 20:10 11,0 C 0,0 C 0,0 C 74 % 1011,5 hPa 0,0 l/m 1,2 km/h (1 Bft) NO 35 0 min 0,000 mm 0 W/m 6,5 C 11,0 C 1,2 km/h (1 Bft) 0,00 %
01.10.2013 20:15 11,0 C 0,0 C 0,0 C 73 % 1011,5 hPa 0,0 l/m 0,0 km/h (0 Bft) O 100 0 min 0,000 mm 0 W/m 6,4 C 11,0 C 0,0 km/h (0 Bft) 0,00 %
01.10.2013 20:20 11,1 C 0,0 C 0,0 C 72 % 1012,5 hPa 0,0 l/m 6,4 km/h (2 Bft) N 0 0 min 0,000 mm 0 W/m 6,2 C 11,1 C 6,4 km/h (2 Bft) 0,00 %
01.10.2013 20:25 11,1 C 0,0 C 0,0 C 72 % 1012,5 hPa 0,0 l/m 7,3 km/h (2 Bft) S 175 0 min 0,000 mm 0 W/m 6,2 C 11,1 C 7,3 km/h (2 Bft) 0,00 %
01.10.2013 20:30 11,2 C 0,0 C 0,0 C 72 % 1012,5 hPa 0,0 l/m 4,8 km/h (1 Bft) NO 35 0 min 0,000 mm 0 W/m 6,3 C 11,2 C 4,8 km/h (1 Bft) 0,00 %
01.10.2013 20:35 11,0 C 0,0 C 0,0 C 72 % 1012,5 hPa 0,0 l/m 0,0 km/h (0 Bft) N 0 0 min 0,000 mm 0 W/m 6,2 C 11,0 C 0,0 km/h (0 Bft) 0,00 %
01.10.2013 20:40 11,0 C 0,0 C 0,0 C 72 % 1012,5 hPa 0,0 l/m 0,0 km/h (0 Bft) W-SW 245 0 min 0,000 mm 0 W/m 6,2 C 11,0 C 0,0 km/h (0 Bft) 0,00 %
01.10.2013 20:45 11,0 C 0,0 C 0,0 C 72 % 1012,5 hPa 0,0 l/m 0,0 km/h (0 Bft) N-NO 15 0 min 0,000 mm 0 W/m 6,2 C 11,0 C 0,0 km/h (0 Bft) 0,00 %
01.10.2013 20:50 10,8 C 0,0 C 0,0 C 72 % 1012,5 hPa 0,0 l/m 0,0 km/h (0 Bft) S-SO 160 0 min 0,000 mm 0 W/m 6,0 C 10,8 C 0,0 km/h (0 Bft) 0,00 %
01.10.2013 20:55 10,8 C 0,0 C 0,0 C 72 % 1012,5 hPa 0,0 l/m 0,0 km/h (0 Bft) N-NO 20 0 min 0,000 mm 0 W/m 6,0 C 10,8 C 0,0 km/h (0 Bft) 0,00 %
01.10.2013 21:00 10,6 C 0,0 C 0,0 C 72 % 1012,5 hPa 0,0 l/m 0,0 km/h (0 Bft) O 95 0 min 0,000 mm 0 W/m 5,8 C 10,6 C 0,0 km/h (0 Bft) 0,00 %
01.10.2013 21:05 10,6 C 0,0 C 0,0 C 73 % 1012,5 hPa 0,0 l/m 0,0 km/h (0 Bft) O-NO 60 0 min 0,000 mm 0 W/m 6,0 C 10,6 C 0,0 km/h (0 Bft) 0,00 %
01.10.2013 21:10 10,7 C 0,0 C 0,0 C 72 % 1012,5 hPa 0,0 l/m 0,0 km/h (0 Bft) N-NO 15 0 min 0,000 mm 0 W/m 5,9 C 10,7 C 0,0 km/h (0 Bft) 0,00 %
01.10.2013 21:15 10,7 C 0,0 C 0,0 C 72 % 1012,5 hPa 0,0 l/m 0,0 km/h (0 Bft) S-SW 210 0 min 0,000 mm 0 W/m 5,9 C 10,7 C 0,0 km/h (0 Bft) 0,00 %
01.10.2013 21:20 10,7 C 0,0 C 0,0 C 71 % 1012,5 hPa 0,0 l/m 0,0 km/h (0 Bft) NO 50 0 min 0,000 mm 0 W/m 5,7 C 10,7 C 0,0 km/h (0 Bft) 0,00 %
01.10.2013 21:25 10,9 C 0,0 C 0,0 C 71 % 1012,5 hPa 0,0 l/m 3,0 km/h (1 Bft) N 10 0 min 0,000 mm 0 W/m 5,9 C 10,9 C 3,0 km/h (1 Bft) 0,00 %
01.10.2013 21:30 10,9 C 0,0 C 0,0 C 70 % 1012,5 hPa 0,0 l/m 7,6 km/h (2 Bft) N-NO 30 0 min 0,000 mm 0 W/m 5,6 C 10,9 C 7,6 km/h (2 Bft) 0,00 %
01.10.2013 21:35 10,8 C 0,0 C 0,0 C 70 % 1012,5 hPa 0,0 l/m 0,0 km/h (0 Bft) NO 55 0 min 0,000 mm 0 W/m 5,6 C 10,8 C 0,0 km/h (0 Bft) 0,00 %
01.10.2013 21:40 10,8 C 0,0 C 0,0 C 70 % 1012,5 hPa 0,0 l/m 5,4 km/h (1 Bft) N-NW 345 0 min 0,000 mm 0 W/m 5,6 C 10,8 C 5,4 km/h (1 Bft) 0,00 %
01.10.2013 21:45 11,0 C 0,0 C 0,0 C 69 % 1012,5 hPa 0,0 l/m 2,7 km/h (1 Bft) O-SO 120 0 min 0,000 mm 0 W/m 5,5 C 11,0 C 2,7 km/h (1 Bft) 0,00 %
01.10.2013 21:50 11,1 C 0,0 C 0,0 C 68 % 1012,5 hPa 0,0 l/m 9,1 km/h (2 Bft) NO 50 0 min 0,000 mm 0 W/m 5,4 C 11,1 C 9,1 km/h (2 Bft) 0,00 %
01.10.2013 21:55 10,9 C 0,0 C 0,0 C 69 % 1012,5 hPa 0,0 l/m 5,1 km/h (1 Bft) O 80 0 min 0,000 mm 0 W/m 5,4 C 10,9 C 5,1 km/h (1 Bft) 0,00 %
01.10.2013 22:00 10,7 C 0,0 C 0,0 C 69 % 1012,5 hPa 0,0 l/m 6,1 km/h (2 Bft) S-SO 160 0 min 0,000 mm 0 W/m 5,2 C 10,7 C 6,1 km/h (2 Bft) 0,00 %
01.10.2013 22:05 10,7 C 0,0 C 0,0 C 68 % 1012,5 hPa 0,0 l/m 7,3 km/h (2 Bft) N-NW 335 0 min 0,000 mm 0 W/m 5,0 C 10,7 C 7,3 km/h (2 Bft) 0,00 %
01.10.2013 22:10 10,8 C 0,0 C 0,0 C 68 % 1012,5 hPa 0,0 l/m 7,3 km/h (2 Bft) O 85 0 min 0,000 mm 0 W/m 5,1 C 10,8 C 7,3 km/h (2 Bft) 0,00 %
01.10.2013 22:15 10,6 C 0,0 C 0,0 C 68 % 1012,5 hPa 0,0 l/m 2,1 km/h (1 Bft) W 275 0 min 0,000 mm 0 W/m 4,9 C 10,6 C 2,1 km/h (1 Bft) 0,00 %
01.10.2013 22:20 10,6 C 0,0 C 0,0 C 68 % 1012,5 hPa 0,0 l/m 6,4 km/h (2 Bft) N 5 0 min 0,000 mm 0 W/m 4,9 C 10,6 C 6,4 km/h (2 Bft) 0,00 %
01.10.2013 22:25 10,6 C 0,0 C 0,0 C 68 % 1012,5 hPa 0,0 l/m 4,2 km/h (1 Bft) N-NO 25 0 min 0,000 mm 0 W/m 4,9 C 10,6 C 4,2 km/h (1 Bft) 0,00 %
01.10.2013 22:30 10,4 C 0,0 C 0,0 C 68 % 1012,5 hPa 0,0 l/m 5,7 km/h (1 Bft) N-NW 340 0 min 0,000 mm 0 W/m 4,8 C 10,4 C 5,7 km/h (1 Bft) 0,00 %
01.10.2013 22:35 10,0 C 0,0 C 0,0 C 70 % 1012,5 hPa 0,0 l/m 0,0 km/h (0 Bft) N 10 0 min 0,000 mm 0 W/m 4,8 C 10,0 C 0,0 km/h (0 Bft) 0,00 %
01.10.2013 22:40 9,3 C 0,0 C 0,0 C 72 % 1012,5 hPa 0,0 l/m 0,0 km/h (0 Bft) NW 320 0 min 0,000 mm 0 W/m 4,5 C 9,3 C 0,0 km/h (0 Bft) 0,00 %
01.10.2013 22:45 9,1 C 0,0 C 0,0 C 73 % 1012,5 hPa 0,0 l/m 0,0 km/h (0 Bft) W-NW 285 0 min 0,000 mm 0 W/m 4,5 C 9,1 C 0,0 km/h (0 Bft) 0,00 %
01.10.2013 22:50 9,1 C 0,0 C 0,0 C 73 % 1012,5 hPa 0,0 l/m 0,0 km/h (0 Bft) O-NO 65 0 min 0,000 mm 0 W/m 4,5 C 9,1 C 0,0 km/h (0 Bft) 0,00 %
01.10.2013 22:55 9,3 C 0,0 C 0,0 C 73 % 1012,5 hPa 0,0 l/m 6,7 km/h (2 Bft) N-NW 330 0 min 0,000 mm 0 W/m 4,7 C 8,5 C 6,7 km/h (2 Bft) 0,00 %
01.10.2013 23:00 9,2 C 0,0 C 0,0 C 72 % 1012,5 hPa 0,0 l/m 0,0 km/h (0 Bft) N-NO 30 0 min 0,000 mm 0 W/m 4,4 C 9,2 C 0,0 km/h (0 Bft) 0,00 %
01.10.2013 23:05 8,9 C 0,0 C 0,0 C 73 % 1012,5 hPa 0,0 l/m 0,0 km/h (0 Bft) W-NW 290 0 min 0,000 mm 0 W/m 4,3 C 8,9 C 0,0 km/h (0 Bft) 0,00 %
01.10.2013 23:10 8,9 C 0,0 C 0,0 C 73 % 1012,5 hPa 0,0 l/m 0,0 km/h (0 Bft) NW 305 0 min 0,000 mm 0 W/m 4,3 C 8,9 C 0,0 km/h (0 Bft) 0,00 %
01.10.2013 23:15 8,5 C 0,0 C 0,0 C 74 % 1012,5 hPa 0,0 l/m 0,0 km/h (0 Bft) NW 320 0 min 0,000 mm 0 W/m 4,1 C 8,5 C 0,0 km/h (0 Bft) 0,00 %
01.10.2013 23:20 8,3 C 0,0 C 0,0 C 75 % 1013,5 hPa 0,0 l/m 0,0 km/h (0 Bft) W-NW 285 0 min 0,000 mm 0 W/m 4,1 C 8,3 C 0,0 km/h (0 Bft) 0,00 %
01.10.2013 23:25 8,1 C 0,0 C 0,0 C 75 % 1013,5 hPa 0,0 l/m 0,0 km/h (0 Bft) NO 35 0 min 0,000 mm 0 W/m 3,9 C 8,1 C 0,0 km/h (0 Bft) 0,00 %
01.10.2013 23:30 8,0 C 0,0 C 0,0 C 76 % 1013,5 hPa 0,0 l/m 0,0 km/h (0 Bft) N 350 0 min 0,000 mm 0 W/m 4,0 C 8,0 C 0,0 km/h (0 Bft) 0,00 %
01.10.2013 23:35 8,0 C 0,0 C 0,0 C 75 % 1013,5 hPa 0,0 l/m 0,0 km/h (0 Bft) NO 40 0 min 0,000 mm 0 W/m 3,8 C 8,0 C 0,0 km/h (0 Bft) 0,00 %
01.10.2013 23:40 7,9 C 0,0 C 0,0 C 75 % 1013,5 hPa 0,0 l/m 0,0 km/h (0 Bft) S 175 0 min 0,000 mm 0 W/m 3,7 C 7,9 C 0,0 km/h (0 Bft) 0,00 %
01.10.2013 23:45 7,8 C 0,0 C 0,0 C 75 % 1013,5 hPa 0,0 l/m 0,0 km/h (0 Bft) N 350 0 min 0,000 mm 0 W/m 3,7 C 7,8 C 0,0 km/h (0 Bft) 0,00 %
01.10.2013 23:50 7,7 C 0,0 C 0,0 C 75 % 1012,5 hPa 0,0 l/m 2,4 km/h (1 Bft) N-NO 20 0 min 0,000 mm 0 W/m 3,6 C 7,7 C 2,4 km/h (1 Bft) 0,00 %
01.10.2013 23:55 7,7 C 0,0 C 0,0 C 75 % 1012,5 hPa 0,0 l/m 0,9 km/h (0 Bft) N-NO 30 0 min 0,000 mm 0 W/m 3,6 C 7,7 C 0,9 km/h (0 Bft) 0,00 %
_ Min-Zeit 02:05 00:00 00:00 15:10 04:05 - 00:00 - - - - - 23:50 03:55 00:00 00:00
Minimum _ 6,4 C 0,0 C 0,0 C 57 % 1007,5 hPa - 0,0 km/h (0 Bft) - - - - - 3,6 C 4,9 C 0,0 km/h (0 Bft) 0,00 %
_ Max-Zeit 14:55 00:00 00:00 01:05 23:20 00:00 14:35 - - 00:00 00:00 00:00 14:30 14:55 14:35 00:00
Maximum _ 17,6 C 0,0 C 0,0 C 85 % 1013,5 hPa 0,0 l/m 18,2 km/h
O (3 Bft)
- - 0 min 0,000 mm 0 W/m 9,4 C 17,6 C 18,2 km/h
O (3 Bft)
0,00 %
Durchschnitt _ 10,8 C 0,0 C 0,0 C 73 % 1010,1 hPa #0,0 l/m 5,2 km/h (1 Bft) N-NO - #0 min. #0,000 mm 0 W/m 6,0 C 10,6 C 5,2 km/h (1 Bft) 0,00 %
Wetterstation Gdesweiler